Location: Waldport
(44.4270°N, 124.0680°W)
Time: 16:32:49
(UTC-07:00)

ISS - Pass Details

Date: 25 February 2019
Orbit: 406 x 411 km, 51.6° (Epoch: 19 March)

Event Time Altitude Azimuth Distance (km) Brightness Sun altitude
Exits shadow 05:06:22 17° 165° (SSE) 1,130 -1.5 -21.1°
Maximum altitude 05:07:35 20° 136° (SE) 1,004 -1.5 -20.9°
Drops below altitude 10° 05:10:04 10° 86° (E) 1,465 0.2 -20.5°
Sets 05:12:30 0° 69° (ENE) 2,330 1.5 -20.0°
